Hovedside
METAR-TAF:

METAR-TAF

Lufthavner :

Pajala lufthavn

Pajala, Sverige

breddegrad: 67-14-44N, lengdegrad: 023-04-08E, høyde over havet: 165 m

Gjeldene værobservasjon

Denne rapporten ble laget for 31 minutter siden, klokken 09:50 UTC
Vind 2 kt fra skiftende retning
Temperatur -6°C
Luftfuktighet 86%
Trykk 1033 hPa
Sikt 10 km eller mer

METAR: ESUP 190950Z AUTO VRB02KT 9999 NCD M06/M08 Q1033

Tid: 11:21 (10:21 UTC)


TAF: fraværende

Værobservasjoner og værvarsel for over 4000 flyplasser (METAR- og TAF-rapporter).

Tilgjengelige stasjoner er representert av de røde og gule prikkene på kartet.

Hold musepekeren over prikken for å se navnet på stasjonen.

Klikk så for å se værobservasjoner og -varsler.

For å forandre kartet kan du klikke på den grønne knappen med svart kryss for å zoome inn, på den grønne knappen med strek for å zoome ut, eller på de grønne pilene for å se tilstøtende kart.


METAR-TAF: